Location: *
(58.7167°N, 26.1833°E)
Time: 03:58:25
(UTC+00:00)

Cosmos 1937 Rocket - Pass Details

Date: 25 August 2019
Orbit: 746 x 781 km, 74.0° (Epoch: 15 September)

Event Time Altitude Azimuth Distance (km) Brightness Sun altitude
Rises 18:30:55 0° 181° (S) 3,253 6.4 -7.0°
Reaches altitude 10° 18:33:24 10° 174° (S) 2,332 5.6 -7.3°
Maximum altitude 18:38:18 39° 107° (ESE) 1,158 4.0 -7.8°
Drops below altitude 10° 18:43:14 10° 40° (NE) 2,348 6.0 -8.3°
Sets 18:45:45 0° 33° (NNE) 3,279 6.8 -8.6°
